| time (UTC) | temp F | wind direction | speed MPH | gust MPH | rain 1hr in | rain 24hr in | rain mn in | humidity % | barometer mb |
| 20260508181737 | 83 | 78 | 5.0 | 13.0 | 0.00 | 0.00 | 0.00 | 74 | 1013.9 |
| 20260508180713 | 83 | 119 | 5.0 | 13.0 | 0.00 | 0.00 | 0.00 | 73 | 1013.9 |
| 20260508175713 | 84 | 103 | 5.0 | 12.0 | 0.00 | 0.00 | 0.00 | 73 | 1014.0 |
| 20260508173629 | 84 | 69 | 6.0 | 11.0 | 0.00 | 0.00 | 0.00 | 73 | 1014.2 |
| 20260508172552 | 84 | 103 | 5.0 | 11.0 | 0.00 | 0.00 | 0.00 | 73 | 1014.3 |
| 20260508171531 | 84 | 92 | 5.0 | 11.0 | 0.00 | 0.00 | 0.00 | 74 | 1014.3 |
| 20260508170523 | 83 | 57 | 6.0 | 11.0 | 0.00 | 0.00 | 0.00 | 72 | 1014.5 |
| 20260508165507 | 84 | 47 | 4.0 | 9.0 | 0.00 | 0.00 | 0.00 | 72 | 1014.7 |
| 20260508164438 | 83 | 82 | 5.0 | 10.0 | 0.00 | 0.00 | 0.00 | 75 | 1014.9 |
| 20260508163405 | 83 | 73 | 5.0 | 9.0 | 0.00 | 0.00 | 0.00 | 75 | 1015.0 |
| 20260508162349 | 82 | 94 | 5.0 | 9.0 | 0.00 | 0.00 | 0.00 | 75 | 1015.1 |
| 20260508161324 | 83 | 57 | 4.0 | 9.0 | 0.00 | 0.00 | 0.00 | 75 | 1015.2 |
| 20260508160312 | 83 | 33 | 5.0 | 9.0 | 0.00 | 0.00 | 0.00 | 73 | 1015.4 |
| 20260508154201 | 84 | 17 | 4.0 | 9.0 | 0.00 | 0.00 | 0.00 | 72 | 1015.5 |
| 20260508153205 | 82 | 311 | 4.0 | 6.0 | 0.00 | 0.00 | 0.00 | 72 | 1015.6 |
| 20260508152148 | 82 | 300 | 3.0 | 7.0 | 0.00 | 0.00 | 0.00 | 73 | 1015.6 |
| 20260508151122 | 81 | 322 | 4.0 | 7.0 | 0.00 | 0.00 | 0.00 | 74 | 1015.6 |
| 20260508150133 | 81 | 309 | 4.0 | 7.0 | 0.00 | 0.00 | 0.00 | 74 | 1015.6 |
| 20260508145059 | 81 | 319 | 4.0 | 8.0 | 0.00 | 0.00 | 0.00 | 75 | 1015.5 |
| 20260508144039 | 80 | 292 | 6.0 | 9.0 | 0.00 | 0.00 | 0.00 | 76 | 1015.6 |
| 20260508143048 | 80 | 311 | 5.0 | 9.0 | 0.00 | 0.00 | 0.00 | 77 | 1015.6 |
| 20260508142012 | 80 | 324 | 6.0 | 10.0 | 0.00 | 0.00 | 0.00 | 78 | 1015.6 |
| 20260508141021 | 80 | 314 | 7.0 | 10.0 | 0.00 | 0.00 | 0.00 | 78 | 1015.6 |
| 20260508134851 | 79 | 323 | 7.0 | 11.0 | 0.00 | 0.00 | 0.00 | 80 | 1015.5 |
| 20260508132714 | 78 | 302 | 7.0 | 10.0 | 0.00 | 0.00 | 0.00 | 80 | 1015.5 |
| 20260508130449 | 77 | 302 | 3.0 | 7.0 | 0.00 | 0.00 | 0.00 | 80 | 1015.3 |
| 20260508125424 | 77 | 292 | 3.0 | 6.0 | 0.00 | 0.00 | 0.00 | 80 | 1015.2 |
| 20260508123314 | 76 | 275 | 3.0 | 5.0 | 0.00 | 0.00 | 0.00 | 79 | 1015.1 |
| 20260508122239 | 76 | 268 | 4.0 | 6.0 | 0.00 | 0.00 | 0.00 | 80 | 1015.1 |
| 20260508121205 | 75 | 269 | 4.0 | 6.0 | 0.00 | 0.00 | 0.00 | 79 | 1015.0 |
| 20260508120144 | 75 | 263 | 5.0 | 7.0 | 0.00 | 0.00 | 0.00 | 80 | 1014.9 |
| 20260508115123 | 75 | 270 | 5.0 | 7.0 | 0.00 | 0.00 | 0.00 | 80 | 1014.7 |
| 20260508114122 | 74 | 252 | 4.0 | 6.0 | 0.00 | 0.00 | 0.00 | 80 | 1014.7 |
| 20260508113122 | 74 | 246 | 3.0 | 6.0 | 0.00 | 0.00 | 0.00 | 80 | 1014.5 |
| 20260508112052 | 74 | 252 | 4.0 | 6.0 | 0.00 | 0.00 | 0.00 | 80 | 1014.4 |
| 20260508111033 | 74 | 253 | 4.0 | 6.0 | 0.00 | 0.00 | 0.00 | 80 | 1014.3 |
| 20260508104907 | 74 | 269 | 5.0 | 7.0 | 0.00 | 0.00 | 0.00 | 79 | 1014.1 |
| 20260508103846 | 74 | 272 | 5.0 | 7.0 | 0.00 | 0.00 | 0.00 | 79 | 1013.9 |
| 20260508102857 | 74 | 285 | 6.0 | 7.0 | 0.00 | 0.00 | 0.00 | 79 | 1013.9 |
| 20260508101903 | 74 | 275 | 7.0 | 8.0 | 0.00 | 0.00 | 0.00 | 79 | 1013.8 |
| 20260508100849 | 74 | 267 | 6.0 | 8.0 | 0.00 | 0.00 | 0.00 | 79 | 1013.6 |
| 20260508095904 | 74 | 261 | 6.0 | 7.0 | 0.00 | 0.00 | 0.00 | 79 | 1013.4 |
| 20260508094844 | 74 | 264 | 5.0 | 7.0 | 0.00 | 0.00 | 0.00 | 78 | 1013.4 |
| 20260508093857 | 74 | 255 | 5.0 | 6.0 | 0.00 | 0.00 | 0.00 | 78 | 1013.3 |
| 20260508092833 | 74 | 252 | 4.0 | 6.0 | 0.00 | 0.00 | 0.00 | 78 | 1013.2 |
| 20260508091848 | 74 | 257 | 4.0 | 6.0 | 0.00 | 0.00 | 0.00 | 78 | 1013.2 |
| 20260508090833 | 74 | 253 | 3.0 | 5.0 | 0.00 | 0.00 | 0.00 | 77 | 1013.2 |
| 20260508085855 | 74 | 248 | 3.0 | 5.0 | 0.00 | 0.00 | 0.00 | 77 | 1013.2 |
| 20260508084842 | 74 | 245 | 4.0 | 7.0 | 0.00 | 0.00 | 0.00 | 77 | 1013.1 |
| 20260508082719 | 74 | 225 | 5.0 | 7.0 | 0.00 | 0.00 | 0.00 | 75 | 1013.2 |
| 20260508080618 | 75 | 235 | 4.0 | 7.0 | 0.00 | 0.00 | 0.00 | 73 | 1013.2 |
| 20260508075554 | 75 | 236 | 4.0 | 7.0 | 0.00 | 0.00 | 0.00 | 72 | 1013.2 |
| 20260508074610 | 76 | 236 | 4.0 | 6.0 | 0.00 | 0.00 | 0.00 | 72 | 1013.2 |
| 20260508073547 | 76 | 244 | 5.0 | 6.0 | 0.00 | 0.00 | 0.00 | 71 | 1013.3 |
| 20260508072547 | 76 | 249 | 4.0 | 6.0 | 0.00 | 0.00 | 0.00 | 71 | 1013.4 |
| 20260508070328 | 76 | 244 | 1.0 | 2.0 | 0.00 | 0.00 | 0.00 | 70 | 1013.2 |
| 20260508065331 | 76 | 244 | 1.0 | 4.0 | 0.00 | 0.00 | 0.00 | 70 | 1013.3 |
| 20260508064325 | 77 | 244 | 4.0 | 6.0 | 0.00 | 0.00 | 0.00 | 69 | 1013.3 |
| 20260508063301 | 77 | 269 | 4.0 | 6.0 | 0.00 | 0.00 | 0.00 | 67 | 1013.4 |
| 20260508062256 | 77 | 274 | 3.0 | 6.0 | 0.00 | 0.00 | 0.00 | 66 | 1013.3 |
| 20260508061221 | 77 | 282 | 4.0 | 6.0 | 0.00 | 0.00 | 0.00 | 66 | 1013.4 |
| 20260508060216 | 78 | 273 | 4.0 | 6.0 | 0.00 | 0.00 | 0.00 | 64 | 1013.5 |
| 20260508055239 | 78 | 274 | 5.0 | 7.0 | 0.00 | 0.00 | 0.00 | 64 | 1013.6 |
| 20260508054223 | 78 | 269 | 6.0 | 7.0 | 0.00 | 0.00 | 0.00 | 64 | 1013.7 |
| 20260508053150 | 79 | 280 | 5.0 | 7.0 | 0.00 | 0.00 | 0.00 | 62 | 1013.8 |
| 20260508052134 | 79 | 274 | 4.0 | 6.0 | 0.00 | 0.00 | 0.00 | 61 | 1013.8 |
| 20260508050014 | 80 | 279 | 5.0 | 7.0 | 0.00 | 0.00 | 0.00 | 63 | 1013.9 |
| 20260508045012 | 80 | 288 | 5.0 | 7.0 | 0.00 | 0.00 | 0.00 | 65 | 1013.8 |
| 20260508042844 | 80 | 258 | 4.0 | 6.0 | 0.00 | 0.00 | 0.00 | 73 | 1013.6 |
| 20260508041817 | 79 | 252 | 3.0 | 6.0 | 0.00 | 0.00 | 0.00 | 77 | 1013.6 |
| 20260508040743 | 79 | 238 | 4.0 | 5.0 | 0.00 | 0.00 | 0.00 | 77 | 1013.4 |
| 20260508035713 | 79 | 234 | 3.0 | 5.0 | 0.00 | 0.00 | 0.00 | 79 | 1013.5 |
| 20260508034708 | 79 | 215 | 4.0 | 6.0 | 0.00 | 0.00 | 0.00 | 78 | 1013.5 |
| 20260508033702 | 79 | 220 | 5.0 | 7.0 | 0.00 | 0.00 | 0.00 | 79 | 1013.6 |
| 20260508032641 | 79 | 201 | 6.0 | 7.0 | 0.00 | 0.00 | 0.00 | 79 | 1013.5 |
| 20260508031613 | 80 | 221 | 6.0 | 8.0 | 0.00 | 0.00 | 0.00 | 79 | 1013.5 |
| 20260508030553 | 80 | 201 | 7.0 | 9.0 | 0.00 | 0.00 | 0.00 | 79 | 1013.5 |
| 20260508025606 | 80 | 195 | 7.0 | 9.0 | 0.00 | 0.00 | 0.00 | 78 | 1013.5 |
| 20260508023423 | 80 | 202 | 8.0 | 10.0 | 0.00 | 0.00 | 0.00 | 79 | 1013.3 |
| 20260508021259 | 80 | 185 | 8.0 | 11.0 | 0.00 | 0.00 | 0.00 | 78 | 1013.2 |
| 20260508015122 | 81 | 176 | 8.0 | 13.0 | 0.00 | 0.00 | 0.00 | 78 | 1012.9 |
| 20260508011815 | 81 | 153 | 7.0 | 11.0 | 0.00 | 0.00 | 0.00 | 79 | 1012.8 |
| 20260508010827 | 81 | 139 | 7.0 | 11.0 | 0.00 | 0.00 | 0.00 | 78 | 1012.7 |
| 20260508005847 | 81 | 161 | 7.0 | 13.0 | 0.00 | 0.00 | 0.00 | 79 | 1012.7 |
| 20260508004851 | 81 | 154 | 9.0 | 13.0 | 0.00 | 0.00 | 0.00 | 79 | 1012.7 |
| 20260508002758 | 81 | 140 | 8.0 | 16.0 | 0.00 | 0.00 | 0.00 | 79 | 1012.7 |
| 20260508001811 | 81 | 132 | 10.0 | 16.0 | 0.00 | 0.00 | 0.00 | 79 | 1012.7 |
| 20260508000733 | 81 | 150 | 10.0 | 18.0 | 0.00 | 0.00 | 0.00 | 79 | 1012.6 |
| 20260507235709 | 81 | 152 | 10.0 | 19.0 | 0.00 | 0.00 | 0.00 | 79 | 1012.5 |
| 20260507234637 | 81 | 148 | 10.0 | 20.0 | 0.00 | 0.00 | 0.00 | 78 | 1012.5 |
| 20260507232500 | 82 | 148 | 10.0 | 17.0 | 0.00 | 0.00 | 0.00 | 77 | 1012.5 |
| 20260507231515 | 82 | 144 | 8.0 | 14.0 | 0.00 | 0.00 | 0.00 | 78 | 1012.5 |
| 20260507230455 | 82 | 123 | 7.0 | 14.0 | 0.00 | 0.00 | 0.00 | 77 | 1012.5 |
| 20260507225424 | 82 | 153 | 7.0 | 15.0 | 0.00 | 0.00 | 0.00 | 76 | 1012.4 |
| 20260507223224 | 82 | 133 | 8.0 | 14.0 | 0.00 | 0.00 | 0.00 | 75 | 1012.3 |
| 20260507222241 | 83 | 158 | 8.0 | 14.0 | 0.00 | 0.00 | 0.00 | 75 | 1012.3 |
| 20260507221220 | 83 | 113 | 7.0 | 13.0 | 0.00 | 0.00 | 0.00 | 74 | 1012.4 |
| 20260507220206 | 83 | 133 | 7.0 | 13.0 | 0.00 | 0.00 | 0.00 | 73 | 1012.4 |
| 20260507215147 | 83 | 124 | 8.0 | 13.0 | 0.00 | 0.00 | 0.00 | 73 | 1012.4 |
| 20260507214122 | 82 | 128 | 8.0 | 13.0 | 0.00 | 0.00 | 0.00 | 74 | 1012.4 |
| 20260507205736 | 83 | 152 | 8.0 | 14.0 | 0.00 | 0.00 | 0.00 | 74 | 1012.7 |
| 20260507203549 | 83 | 124 | 8.0 | 14.0 | 0.00 | 0.00 | 0.00 | 74 | 1012.7 |
| 20260507202520 | 83 | 151 | 8.0 | 14.0 | 0.00 | 0.00 | 0.00 | 74 | 1012.8 |
| 20260507201454 | 83 | 133 | 8.0 | 14.0 | 0.00 | 0.00 | 0.00 | 75 | 1012.9 |
| 20260507200429 | 83 | 132 | 7.0 | 12.0 | 0.00 | 0.00 | 0.00 | 74 | 1013.1 |
| 20260507195356 | 83 | 98 | 7.0 | 13.0 | 0.00 | 0.00 | 0.00 | 75 | 1013.3 |
| 20260507194354 | 83 | 112 | 8.0 | 14.0 | 0.00 | 0.00 | 0.00 | 74 | 1013.4 |
| 20260507192231 | 82 | 121 | 7.0 | 13.0 | 0.00 | 0.00 | 0.00 | 74 | 1013.4 |
| 20260507191211 | 82 | 118 | 7.0 | 13.0 | 0.00 | 0.00 | 0.00 | 74 | 1013.8 |
| 20260507185057 | 83 | 96 | 6.0 | 10.0 | 0.00 | 0.00 | 0.00 | 74 | 1014.1 |
| 20260507184042 | 83 | 118 | 5.0 | 11.0 | 0.00 | 0.00 | 0.00 | 74 | 1014.3 |
| 20260507183028 | 82 | 86 | 6.0 | 12.0 | 0.00 | 0.00 | 0.00 | 73 | 1014.5 |